10K Start: 11:24:37
W.Btm
Pl No Name UID Class [Finish] Time CP3
1 144 Euan Lees 12559 MV40 12:12:36 00:47:59 00:27:27
2 1175 Grzegorz Dopart 31058 M 12:13:21 00:48:44 00:27:56
3 1070 Bram Ottenhof 30420 M 12:13:47 00:49:10 00:28:45
4 183 John Owens 11312 MV40 12:13:51 00:49:14 00:29:16
5 89 Dan Fitzsimmons 34325 M 12:14:12 00:49:35 00:28:46
6 381 Tom Davies 3503 M 12:14:38 00:50:01 00:29:04
7 112 Andrew Hay 32778 M 12:15:25 00:50:48 00:29:05
8 141 Iain Large 33449 M 12:16:03 00:51:26 00:30:16
1F 9 650 Paula Rutherfoord 8724 F 12:16:33 00:51:56 00:30:09
10 132 Josh Kerry 32339 MU20 12:16:37 00:52:00 00:31:26
11 160 William Mcdonald 6664 MV40 12:16:49 00:52:12 00:30:27
12 219 Martin Senior 33240 M 12:17:04 00:52:27 00:30:53
13 184 Gavin Pape 7353 M 12:17:15 00:52:38 00:31:39
14 651 Robbie Ryan 32768 MV40 12:17:56 00:53:19 00:30:32
15 71 Matthew Dewey 24376 M 12:18:07 00:53:30 00:31:53
16 76 Johnny Drennan 24416 M 12:18:14 00:53:37 00:30:59
2F 17 450 Jo Greenfield 26967 F 12:18:16 00:53:39 00:31:54
18 227 David Stemp 18770 MV45 12:18:38 00:54:01 00:31:21
19 133 Nick Kerry 32338 MV50 12:19:06 00:54:29 00:32:36
3F 20 1173 Sarah Barber   F 12:19:11 00:54:34 00:31:37
21 131 Simon Kenyon 2630 MV45 12:19:16 00:54:39 00:31:25
22 182 Shaun Owen 32773 M 12:19:43 00:55:06 00:32:21
23 1 Gary Abbott 33041 M 12:19:45 00:55:08 00:33:20
24 139 Dominic Lamb 27748 MV45 12:19:50 00:55:13 00:32:58
25 101 Robert Gluckman 12648 M 12:20:05 00:55:28 00:33:05
26 104 John Gregory 22209 M 12:20:30 00:55:53 00:32:34
27 109 Stuart Hancock 24567 MV45 12:20:52 00:56:15 00:34:29
28 148 Michael Livingstone 33113 M 12:20:57 00:56:20 00:32:19
29 80 Ann Elkins 14222 F 12:21:21 00:56:44 00:33:31
30 23 Karl Bonner 23905 M 12:21:36 00:56:59 00:33:09
31 210 Phil Roker 33230 MV45 12:21:53 00:57:16 00:33:10
32 115 David Hill 25965 M 12:22:08 00:57:31 00:34:05
33 62 Sam Davis 32883 M 12:22:11 00:57:34 00:34:02
34 191 Dave Penney 31659 M 12:23:28 00:58:51 00:35:11
35 702 Ben Timmermans 24073 M 12:23:41 00:59:04 00:34:38
36 72 Jon Dilling 32686 M 12:23:45 00:59:08 00:35:28
37 252 James Williams 23394 M 12:24:02 00:59:25 00:35:51
38 106 Adam Haim 33328 M 12:24:04 00:59:27 00:35:23
39 293 Eltjo Bazen 33460 M 12:24:05 00:59:28 00:35:29
40 47 Nicholas Cooper 24133 MV40 12:24:10 00:59:33 00:35:55
41 70 Emily Dewey 24377 F 12:24:12 00:59:35 00:35:55
42 196 Steven Phillips 32347 M 12:24:17 00:59:40 00:36:06
43 135 Iain King 26986 M 12:24:19 00:59:42 00:35:44
44 232 Nick Taylor 32992 MV40 12:24:23 00:59:46 00:35:25
45 246 Hannah Walsh 18350 F 12:24:30 00:59:53 00:35:33
46 1168 Lucy Edge   F 12:24:45 01:00:08 00:36:44
47 3 Bilen Ahmet 21075 M 12:26:20 01:01:43 00:36:11
48 190 Matthew Peart 24799 M 12:26:25 01:01:48 00:36:15
49 60 James Davies 1627 M 12:26:28 01:01:51 00:36:28
50 194 Richard Perrin 17903 MV45 12:26:32 01:01:55 00:36:45
51 159 Michael Mccarthy 28213 MV50 12:26:35 01:01:58 00:37:14
52 158 Jacob Mccarthy 32744 MU20 12:26:37 01:02:00 00:37:16
53 414 Sabine El-Bacha 7271 FV40 12:26:48 01:02:11 00:36:05
54 152 Charlotte Main 32756 F 12:26:51 01:02:14 00:37:14
55 11 Phil Bartle 25335 M 12:27:01 01:02:24 00:37:28
56 17 Isabella Birch Reynardson 32453 F 12:27:23 01:02:46 00:37:53
57 225 Chris Stanbrook 23644 M 12:27:27 01:02:50 00:38:43
58 81 Warwick Elkins 14223 M 12:27:30 01:02:53 00:36:22
59 163 Bernhardt Megga 32824 F 12:27:32 01:02:55 ok
60 43 Louis Clement 32678 M 12:27:34 01:02:57 00:37:20
61 88 Scott Fitzgerald 31896 M 12:27:42 01:03:05 00:37:18
62 185 Vinay Patel 32966 M 12:27:46 01:03:09 00:39:30
63 162 Graham Meadows 31801 MV40 12:27:49 01:03:12 00:37:51
64 218 Rob Schofield 33103 M 12:27:55 01:03:18 00:36:31
65 254 Lee Wilson 31743 M 12:27:55 01:03:18 00:37:59
66 205 Helen Rawling 8918 F 12:27:58 01:03:21 00:37:57
67 1167 Ben Banton   M 12:28:02 01:03:25 00:37:30
68 157 Samantha Martin 15065 F 12:28:08 01:03:31 00:38:25
69 96 Etienne Gauvain 32926 M 12:28:42 01:04:05 00:37:54
70 197 Stuart Phillips 34247 M 12:28:53 01:04:16 00:37:38
71 161 Alex Mcgonigle 32146 MV40 12:29:29 01:04:52 00:37:56
72 91 Jenny Foster 32421 F 12:29:34 01:04:57 00:38:32
73 86 Katherine Feather 32921 F 12:29:43 01:05:06 00:39:01
74 142 Sarah Layzell 31514 FV50 12:29:45 01:05:08 00:39:06
75 10 Adrian Barritt 32920 M 12:29:47 01:05:10 00:39:03
76 99 Jef Geudens 32309 M 12:29:48 01:05:11 00:38:46
77 192 Alex Percossi 32452 M 12:29:52 01:05:15 00:39:45
78 40 James Chappelle 33458 MV40 12:29:55 01:05:18 00:39:20
79 213 Luke Ryan 33463 M 12:29:55 01:05:18 00:39:20
80 75 Kim Donovan 33142 FV40 12:30:05 01:05:28 00:38:30
81 82 Matt Enock 32348 M 12:31:26 01:06:49 00:39:27
82 230 Natasha Strelzyn 28585 F 12:31:34 01:06:57 00:39:33
83 58 Victoria Dale-Smith 31948 F 12:32:08 01:07:31 00:40:04
84 27 Annette Breedijk 31885 F 12:32:13 01:07:36 00:41:00
85 189 Stephane Pearson 31844 M 12:32:15 01:07:38 00:39:01
86 211 James Rosewell 32552 M 12:32:29 01:07:52 00:39:50
87 195 Lindsay Pettitt 33821 F 12:33:06 01:08:29 00:40:17
88 53 Alex Craster 292 M 12:33:16 01:08:39 00:40:44
89 73 Alex Donovan 33315 M 12:33:27 01:08:50 00:41:21
90 126 Jemma Jelley 32171 FV50 12:33:31 01:08:54 00:40:59
91 489 Dan Hooton 393 MV40 12:33:34 01:08:57 00:40:55
92 249 Amanda Whayman 18778 FV45 12:33:36 01:08:59 00:41:37
93 229 Lucinda Stewart 31985 F 12:33:46 01:09:09 00:41:56
94 200 Alison Pope 18963 F 12:34:01 01:09:24 00:41:41
95 156 Paul Martin 32167 MV50 12:34:10 01:09:33 00:41:05
96 68 Shula Dennard 23074 FV40 12:34:12 01:09:35 00:41:05
97 206 Leigh Rennie 21021 FV45 12:34:23 01:09:46 00:42:11
98 153 Joel Manning 24177 M 12:34:28 01:09:51 00:39:27
99 145 Emma Leighton 23060 FV40 12:34:37 01:10:00 00:41:13
100 224 Phil Slater 32805 M 12:34:39 01:10:02 00:41:18
101 2 Luke Adcock 32814 M 12:34:40 01:10:03 00:40:22
102 1174 Lyle Meikle   M 12:34:42 01:10:05 00:40:22
103 186 Sabrina Patten 32684 FV45 12:34:54 01:10:17 00:42:39
104 56 Katherine Cunliffe 12872 F 12:35:03 01:10:26 00:41:52
105 208 Nigel Robbins 32637 MV50 12:35:08 01:10:31 00:40:25
106 248 Abbey Wellman 24679 F 12:35:25 01:10:48 00:42:26
107 222 Emily Simpson 23883 F 12:35:29 01:10:52 00:41:52
108 29 Craig Brett 23613 MV45 12:35:31 01:10:54 00:41:56
109 400 Annelize Du Plessis 16643 F 12:36:08 01:11:31 00:43:30
110 138 Natalie Koenig 33716 F 12:36:11 01:11:34 00:41:47
111 49 Philippa Cox 28861 FV40 12:36:26 01:11:49 00:42:06
112 203 Craig Rankin 24765 M 12:36:29 01:11:52 00:42:32
113 63 Steve Davis 22469 MV45 12:36:54 01:12:17 00:41:18
114 44 Nigel Coleman 32766 FV50 12:36:58 01:12:21 00:42:41
115 202 Emily Rainsford 32014 F 12:37:27 01:12:50 00:43:41
116 18 Helen Blamey 24938 F 12:38:22 01:13:45 00:44:24
117 100 Marianne Gibson 14954 FV45 12:38:39 01:14:02 00:42:01
118 9 Sarah Barker 17899 F 12:38:59 01:14:22 00:43:43
119 120 Anthony Howard 7716 MV40 12:39:03 01:14:26 00:45:11
120 121 Susannah Howard 7714 F 12:39:05 01:14:28 00:45:10
121 169 Rachel Mills 24375 FV45 12:39:08 01:14:31 00:44:27
122 33 James Burnett 31564 M 12:39:22 01:14:45 00:44:43
123 179 Scott O'brien 28753 M 12:39:24 01:14:47 00:46:54
124 173 Dale Morgan 24228 M 12:39:25 01:14:48 00:44:17
125 404 Jane Dwyer 24579 F 12:39:49 01:15:12 00:43:48
126 663 Julie Shand 23641 FV45 12:39:58 01:15:21 00:45:28
127 102 Sophie Good 34089 F 12:40:06 01:15:29 00:45:23
128 149 Caroline Luff 31488 FV45 12:40:43 01:16:06 00:44:58
129 1172 Lai Leung   F45 12:40:52 01:16:15 00:45:28
130 114 Katalin Hegedus 32815 F 12:40:54 01:16:17 00:46:05
131 220 Jamie Shaw 31625 M 12:40:55 01:16:18 00:48:28
132 255 Tim Woodman 6347 MV55 12:41:28 01:16:51 00:44:14
133 243 Maria Vega 21079 F 12:41:52 01:17:15 00:45:31
134 38 Sarah Catton 32837 F 12:41:54 01:17:17 00:46:48
135 181 David O'sullivan 33534 M 12:41:58 01:17:21 00:46:49
136 90 Pawel Folfasinski 26020 M 12:42:12 01:17:35 00:46:15
137 118 Russell Holmes 32436 MV40 12:42:28 01:17:51 00:45:38
138 216 Daniel Schmidt 32395 M 12:42:28 01:17:51 00:40:53
139 253 Richard Williams 860 MV60 12:42:30 01:17:53 00:46:11
140 117 John Holbrook 32152 MV45 12:42:45 01:18:08 00:45:24
141 95 Karen Gallantry 17999 FV40 12:42:55 01:18:18 00:46:06
142 1162 Sam Belchambers   MV40 12:43:06 01:18:29 00:44:43
143 1176 Jayne Juues   F45 12:43:11 01:18:34 00:46:07
144 193 Debbie Perrin 28477 FV45 12:43:13 01:18:36 00:45:51
145 123 Nanny Huibers 33207 FV55 12:43:30 01:18:53 00:45:40
146 94 Olivier Frei 32153 M 12:44:07 01:19:30 00:47:30
147 217 Nicole Schmidt 33652 F 12:44:09 01:19:32 00:46:01
148 1156 Jan Crocher   FV40 12:44:12 01:19:35 00:46:18
149 32 Jess Bryan 32710 F 12:44:35 01:19:58 00:46:54
150 1178 1002178 19:07:23     12:44:40 01:20:03 00:46:14
151 228 Kate Stevens 34238 F 12:45:23 01:20:46 00:47:25
152 1170 Hiltje Kartenbeld   F30 12:45:41 01:21:04 00:46:35
153 143 Chris Lee 32790 M 12:46:00 01:21:23 00:49:22
154 64 Theo De Wit 32822 MV55 12:46:06 01:21:29 00:47:48
155 79 Pauline Eggenhuizen 33212 F 12:46:25 01:21:48 00:49:37
156 129 Andy Jukes 19971 MV45 12:46:36 01:21:59 00:47:58
157 251 Rosa Wilkinson 32335 FU20 12:46:39 01:22:02 00:47:50
158 245 Josie Wade 32334 FU20 12:46:40 01:22:03 00:47:51
159 31 Rebecca Brooker-Jones 24361 F 12:46:45 01:22:08 00:49:46
160 98 Imogen Gent 17641 F 12:46:48 01:22:11 00:49:46
161 78 Michelle Earl 31241 FV40 12:46:50 01:22:13 00:49:40
162 235 Heather Tillman 27712 F 12:47:14 01:22:37 00:50:17
163 97 Helen Gemmell 23673 F 12:47:16 01:22:39 00:50:22
164 187 Verity Pearce 33153 F 12:47:19 01:22:42 00:49:39
165 188 Mollie Pearse 24068 F 12:47:19 01:22:42 00:50:18
166 168 Paul Mills 31657 M 12:47:21 01:22:44 00:48:52
167 151 Matilda Macpherson 32464 F 12:48:31 01:23:54 00:49:34
168 238 Driessen Ursula 34012 FV40 12:49:01 01:24:24 00:50:12
169 84 Ton Faassen 33455 MV60 12:49:30 01:24:53 00:50:29
170 16 Ian Bellman 29193 MV55 12:49:31 01:24:54 00:46:27
171 127 Van De Worp Johan 34239 MV55 12:49:38 01:25:01 00:50:37
172 1154 Anna Duignan   F60 12:50:00 01:25:23 00:50:51
173 226 Jodie Staphorst 33556 F 12:50:03 01:25:26 00:50:34
174 22 Andrea Bonarius 33628 F 12:50:05 01:25:28 00:53:33
175 66 Sarah Deleay 32164 FV45 12:50:26 01:25:49 00:50:29
176 59 Chris Daniels 33620 MV40 12:50:48 01:26:11 00:49:44
177 28 Karen Brenton 23889 FV40 12:52:32 01:27:55 00:52:06
178 257 David Wylde 32706 M 12:53:18 01:28:41 00:52:49
179 136 Liza Kleinloog 32541 F 12:53:19 01:28:42 00:54:32
180 177 Stef Nagtzaam 33642 F 12:53:20 01:28:43 00:56:02
181 122 Ryan Hoy 32704 M 12:53:33 01:28:56 00:52:52
182 14 Harriet Bellamy 32703 F 12:53:34 01:28:57 00:52:49
183 39 Nowack Cecile 33445 FV40 12:53:35 01:28:58 00:56:02
184 36 Jackie Campbell 8961 FV45 12:53:51 01:29:14 00:50:12
185 5 Julie Anderson 14059 FV40 12:53:52 01:29:15 00:50:14
186 167 Caroline Mills 25072 F 12:54:19 01:29:42 00:51:14
187 578 Glenda Monson 16456 FV55 12:54:51 01:30:14 00:53:21
188 505 Jamie Jeyaratnam 32150 MV40 12:55:14 01:30:37 00:50:39
189 48 Wendy Couper 1480 FV60 12:55:21 01:30:44 00:53:39
190 24 Ben Bowen 32349 M 12:56:09 01:31:32 00:55:45
191 171 Steenstra Mirjam 33459 F 12:56:34 01:31:57 00:56:09
192 241 Esther Van Der Linde 32816 F 12:57:04 01:32:27 00:56:08
193 242 Irma Van Zanten 32904 FV45 12:57:57 01:33:20 00:57:00
194 155 Denen Marga 33229 FV45 12:58:21 01:33:44 00:56:11
195 1171 Colette Van Esseveld   F45 12:59:14 01:34:37 00:54:15
196 34 Jillian Cable 33234 F 12:59:35 01:34:58 00:58:18
197 21 Joke Bogaard 33054 FV60 12:59:59 01:35:22 00:54:24
198 35 Gill Callus 1866 FV60 13:00:17 01:35:40 00:57:01
199 247 Dorota Welchman 14290 F 13:00:30 01:35:53 00:58:07
200 172 Monique Morel 32974 FV40 13:00:52 01:36:15 00:52:41
201 207 Richard Rijsenburg 34006 MV45 13:00:53 01:36:16 00:52:43
202 19 Marieke Bloemers 32897 F 13:00:57 01:36:20 00:57:20
203 244 Beate Vogt 31630 FV50 13:00:59 01:36:22 00:50:36
204 240 Wilma Van Den Berg 33375 FV50 13:01:06 01:36:29 00:59:44
205 52 Sabine Craenmehr 33247 FV40 13:01:11 01:36:34 00:58:55
206 128 Heynen Josje 33051 F 13:01:14 01:36:37 00:58:56
207 42 Klaassen Cisca 33624 F 13:02:17 01:37:40 00:59:42
208 150 Monique Maasen 33432 FV40 13:03:14 01:38:37 01:03:25
209 67 Kinvarra Delmont 33052 F 13:04:09 01:39:32 01:00:38
210 212 Mark Rowland 32953 M 13:04:29 01:39:52 00:59:48
211 236 Doreen Tolmeijer 33228 FV50 13:07:19 01:42:42 01:00:29
212 111 Amy Hartwell 32147 F 13:07:28 01:42:51 00:54:50
213 174 Laura Moseley 32707 F 13:09:14 01:44:37 00:56:29
214 209 Sarah Robinson 32411 F 13:09:30 01:44:53 01:04:44
215 57 Leanne Curtis 31981 F 13:09:37 01:45:00 01:04:42
216 199 Niriksha Popat 32705 F 13:10:51 01:46:14 01:02:55
217 223 Kartini Slaats 33297 F 13:16:38 01:52:01 01:05:40
218 137 Ingrid Kneefel 32994 FV45 13:16:40 01:52:03 01:05:42
219 92 Suzanne Fowler 33820 FV40 13:19:01 01:54:24 01:09:22
220 239 Cem Usten 32570 M 13:25:08 02:00:31 01:14:09
221 154 Preethi Manoharan 32402 F 13:27:52 02:03:15 01:14:42
222 83 Nas Esther 33502 F 13:50:23 02:25:46 01:20:36
223 178 Emmy Nas 33440 FV60 13:50:27 02:25:50 01:21:07
224 7 Nabuurs Antoinette 33292 FV45 13:50:31 02:25:54 01:20:45
225 13 Nicole Beijen 32210 FV40 13:50:44 02:26:07 01:21:25
226 1155 Caroline Ainley   F 14:06:37 02:42:00 -----
227 1005 Grzegorz Dopart 31058 M 14:07:49 02:43:12 02:13:57
228 30 Emma Brice 31742 F 18:34:45 07:10:08 07:10:03
rtd 105 Mary Gregory 21856 F      
rtd 69 Adam Dewey 27009 MV40      
dnf 313 Andrew Bole 18190 MV40     -----
rtd 65 Christopher Dean 32483 MV45      
  201 Kiel Porter *(h) 33819 M 11:41:16 01:08:43 00:38:49
  237 Matt Turner *(h) 33818 M 11:41:20 01:08:47 00:38:32
  25 James Bowkett *(h) 25099 M 11:47:31 01:14:58 00:40:32
Half Marathon Start: 10:32:33
W.Btm Tyneham
Pl No Name UID Class [Finish] Time CP3 CP2
1 540 Julian Lings 32699 M 12:41:16 02:08:43 00:25:35 01:35:34
2 546 Alan Scott 31489 M 12:56:43 02:24:10 00:29:45 01:48:48
1F 3 543 Lucy Macalister 33101 F 12:59:21 02:26:48 00:30:23 01:49:57
4 745 James Whetman 4427 M 12:59:22 02:26:49 00:30:21 01:50:46
5 1157 Dan Anderson   M 13:01:22 02:28:49 00:27:47 01:48:40
6 647 Martin Rossiter 2635 MV40 13:04:13 02:31:40 00:29:49 01:53:43
7 398 Peter Doubleday 8058 MV40 13:05:01 02:32:28 00:31:03 01:54:56
8 432 Joseph Gale 5136 M 13:06:44 02:34:11 00:29:34 01:53:41
9 551 Wayne Mayer 26905 MV45 13:07:09 02:34:36 00:29:47 01:54:20
10 713 Simon Van Gennip 32662 M 13:07:48 02:35:15 00:29:31 01:53:32
11 390 Julian Dennard 21223 MV40 13:09:17 02:36:44 00:31:41 01:58:17
12 289 Andrew Barton 19310 M 13:09:49 02:37:16 00:31:52 01:57:52
13 272 Steve Armstrong 29189 MV40 13:10:12 02:37:39 00:31:13 01:57:45
14 704 Alan Tomlinson 33456 M 13:11:42 02:39:09 00:31:30 01:59:54
15 766 Phil Wright 23376 M 13:12:21 02:39:48 00:32:25 01:58:54
16 299 Simon Bennet 25088 M 13:14:32 02:41:59 00:31:58 01:58:31
17 393 David Derham 32369 M 13:14:42 02:42:09 00:32:10 02:01:04
18 476 Stephen Hill 33989 M 13:14:50 02:42:17 00:30:01 01:56:29
19 955 Dom Sweny 9635 M 13:15:27 02:42:54 00:32:50 02:02:21
2F 20 377 Lucie Custance 22467 F 13:15:52 02:43:19 00:32:02 02:01:47
21 305 Tom Bertram 33319 M 13:16:18 02:43:45 00:31:45 02:02:17
22 942 Oliver Sinclair 553 M 13:16:30 02:43:57 00:36:08 02:05:33
23 506 Steve Johnston 18541 MV40 13:16:31 02:43:58 00:34:03 02:03:00
24 530 Brad Lawson 32772 M 13:18:54 02:46:21 00:36:23 02:08:03
25 714 Pepijn Van Hove 33110 M 13:18:58 02:46:25 00:34:59 02:07:02
26 471 Daragh Hendley 18016 MV40 13:19:17 02:46:44 00:32:58 02:03:53
27 504 Dan Jendrissek 32011 M 13:20:20 02:47:47 00:34:21 02:03:18
28 491 Alex Houghton 34283 M 13:20:42 02:48:09 00:36:32 02:09:31
29 685 Ollie Stoten 33156 M 13:21:03 02:48:30 00:34:54 02:07:38
30 445 Mark Gorst 18786 MV40 13:21:23 02:48:50 00:34:41 02:07:15
31 621 Martin Price 33034 MV50 13:21:30 02:48:57 00:33:59 02:08:12
32 657 Jelle Schoemaker 32885 M 13:21:33 02:49:00 00:32:54 02:06:40
33 596 Sergio Nunez 15803 M 13:22:18 02:49:45 00:33:27 02:06:02
34 1061 Harry Mold 32531 M 13:22:20 02:49:47 00:33:22 02:07:09
3F 35 125 Sarah Jarvis 33442 F 13:22:57 02:50:24 00:33:55 02:06:00
36 501 Prasoon Jaiswal 31414 M 13:23:17 02:50:44 ok 02:08:44
37 438 Ben Gibbs 32387 M 13:23:38 02:51:05 00:32:52 02:07:12
38 306 Andrew Betton 33067 MV40 13:23:48 02:51:15 00:32:48 02:06:52
39 719 Andrew Vulliamy 13206 M 13:23:51 02:51:18 00:33:16 02:03:58
40 311 David Black 32970 M 13:23:53 02:51:20 00:34:23 02:08:08
41 338 Neil Cable 33233 M 13:23:56 02:51:23 00:34:29 02:08:05
42 457 Pete Hall 31378 M 13:26:22 02:53:49 00:31:42 02:03:16
43 602 Jason Parrish 32993 MV40 13:27:00 02:54:27 00:33:07 02:10:12
44 370 Richard Cottle 1098 MV45 13:27:09 02:54:36 00:34:10 02:10:29
45 640 Georgie Roberts 454 F 13:27:48 02:55:15 00:34:19 02:10:59
46 436 Chris Gent 25401 M 13:27:50 02:55:17 00:37:13 02:12:12
47 1164 Robert Alid   M 13:28:24 02:55:51 00:32:27 02:07:46
48 544 Stephania Magri 32811 F 13:28:46 02:56:13 00:34:25 02:12:25
49 388 Ruben Degiorgio 32812 M 13:28:47 02:56:14 00:34:26 02:11:18
50 715 Sonja Van Oers 33348 F 13:29:20 02:56:47 00:36:26 02:14:09
51 1148 Oscar Sevel   M 13:29:22 02:56:49 00:34:37 02:12:07
52 539 Andrew Linden 32701 M 13:29:30 02:56:57 00:36:02 02:14:16
53 741 Jane Anita Westley 32923 F 13:29:59 02:57:26 00:37:07 02:13:46
54 363 Simon Comer 28258 MV40 13:30:02 02:57:29 00:32:29 02:08:58
55 587 David Murray 27962 MV45 13:30:15 02:57:42 00:34:35 02:13:11
56 366 David Cope 19219 M 13:30:38 02:58:05 00:34:05 02:13:25
57 573 Andrew Mitchell 19033 MV45 13:30:43 02:58:10 00:35:10 02:12:55
58 333 Jonathan Burnill 7213 M 13:30:50 02:58:17 00:38:55 02:17:08
59 706 Nathan Treby 6133 M 13:30:52 02:58:19 00:36:16 02:14:13
60 448 Ryan Graver 24180 M 13:31:01 02:58:28 00:37:11 02:14:48
61 433 Finlay Gall 31942 M 13:31:56 02:59:23 00:34:28 02:12:09
62 1165 David Cope   M 13:32:03 02:59:30 00:36:48 02:16:08
63 605 Russell Pearson 31716 M 13:32:37 03:00:04 00:37:30 02:14:05
64 396 Steven Dix 31639 M 13:33:12 03:00:39 00:34:30 02:11:15
65 532 Philip Leavy 14657 M 13:33:17 03:00:44 00:38:33 02:18:24
66 1166 Tim Hoolahan   M 13:33:46 03:01:13 00:35:33 02:14:07
67 737 Jason Wentzel 33150 M 13:34:12 03:01:39 00:36:55 02:16:47
68 408 Marc Ebanks 6172 MV40 13:34:14 03:01:41 00:37:14 02:18:02
69 292 Werner Baumker 23559 M 13:34:16 03:01:43 00:36:46 02:16:50
70 493 Henry Hughes 31751 M 13:34:18 03:01:45 00:36:50 02:13:33
71 20 Patrycja Bocianowska 31665 F 13:34:27 03:01:54 00:38:47 02:18:20
72 688 Steve Stroud 23140 M 13:34:36 03:02:03 00:35:56 02:12:04
73 360 Trevor Coleman 33703 MV50 13:35:01 03:02:28 00:36:27 02:15:21
74 572 James Miller 22911 M 13:35:24 03:02:51 00:37:20 02:16:04
75 428 Marc Foster 997 M 13:35:26 03:02:53 00:35:35 02:15:30
76 565 Daisy Melville 32750 F 13:35:34 03:03:01 00:37:34 02:17:32
77 451 Thomas Grey 24668 M 13:35:40 03:03:07 00:35:37 02:15:12
78 319 George Boyle 33802 M 13:35:50 03:03:17 00:35:29 02:15:59
79 514 Liv Kempsey 31227 F 13:35:53 03:03:20 00:37:22 02:16:53
80 1139 Darron O'Brien   MV40 13:36:15 03:03:42 00:36:21 02:15:51
81 490 Richard Hopkirk 13044 M 13:36:20 03:03:47 00:38:11 02:20:08
82 678 Cat St Clair 2215 F 13:36:23 03:03:50 00:38:39 02:20:10
83 376 Thomas Cunliffe 12160 MV40 13:36:23 03:03:50 00:37:57 02:20:06
84 582 James Morris 21982 M 13:36:24 03:03:51 00:35:07 02:17:30
85 284 Max Barnett 23384 M 13:37:10 03:04:37 00:41:58 02:20:49
86 328 Jim Bryce 31232 MV45 13:37:38 03:05:05 00:41:23 02:22:33
87 312 Olivia Blok 33619 F 13:37:54 03:05:21 00:38:15 02:18:48
88 394 Ian De-Schoolmeester 29753 M 13:38:08 03:05:35 00:36:19 02:13:01
89 599 Drew Oliphant 23898 M 13:38:20 03:05:47 00:35:09 02:17:28
90 310 John Bjergfelt 21559 M 13:38:24 03:05:51 00:35:49 02:17:37
91 391 Matthew Denyer 15897 M 13:38:33 03:06:00 00:32:47 02:11:27
92 375 Josh Cummins 32295 M 13:38:40 03:06:07 00:43:53 02:24:23
93 411 Ian Edwards 32690 MV40 13:38:44 03:06:11 00:34:16 02:12:24
94 463 Robert Harper 18785 MV40 13:39:37 03:07:04 00:41:14 02:23:45
95 757 Danny Wilson 18116 M 13:39:56 03:07:23 00:37:47 02:18:34
96 470 Lee Hazeldine 507 MV40 13:40:29 03:07:56 00:39:29 02:20:45
97 483 Graham Hogg 10455 M 13:40:58 03:08:25 00:36:34 02:16:51
98 769 Bram Wicherink 34551 M 13:41:16 03:08:43 00:39:57 02:22:50
99 709 Maarten Van Alphen 34010 MV45 13:41:31 03:08:58 00:37:17 02:19:49
100 1049 Zoltan Lesi 25013 M 13:41:33 03:09:00 00:35:46 02:20:23
101 342 David Campbell 32511 M 13:41:33 03:09:00 00:36:51 02:20:47
102 472 Odhran Hendley 32823 M 13:41:56 03:09:23 00:36:59 02:21:51
103 332 Gordon Buntting 32870 M 13:43:26 03:10:53 00:42:11 02:25:13
104 639 Andy Roberts 14846 MV40 13:43:52 03:11:19 00:34:38 02:18:22
105 750 Peter White 17735 M 13:43:55 03:11:22 00:39:48 02:24:54
106 764 Chris Woods 23256 M 13:43:58 03:11:25 00:37:24 02:24:33
107 598 Edward Olcot 9828 MV40 13:44:04 03:11:31 00:41:38 02:25:47
108 562 Jill Mcgee 29205 FV45 13:44:06 03:11:33 00:40:59 02:25:07
109 474 Frank Herold 34155 MV50 13:44:08 03:11:35 00:41:02 02:25:10
110 407 Dan Eastley 32733 M 13:44:22 03:11:49 00:37:01 02:21:03
111 336 Paddy Butler 31341 MV50 13:44:37 03:12:04 00:36:31 02:20:43
112 1152 Andre Kioosteruan   M50 13:45:29 03:12:56 00:42:04 02:25:53
113 1163 Francis Clarke   M 13:45:48 03:13:15 00:37:28 02:21:06
114 372 Jon Cox 32414 M 13:45:51 03:13:18 00:36:13 02:17:48
115 399 Lizzie Doyle 32826 F 13:45:53 03:13:20 00:37:54 02:20:59
116 486 Thomas Holt 32661 M 13:46:14 03:13:41 00:39:03 02:21:55
117 595 Andrew Nolan 17863 M 13:47:33 03:15:00 00:38:13 02:22:04
118 921 Kirsty Reade 18304 FV40 13:47:37 03:15:04 00:40:57 02:26:46
119 405 Chris Dyer 18135 MV45 13:47:57 03:15:24 00:38:20 02:24:44
120 373 Nikki Cox 32515 F 13:48:06 03:15:33 00:37:35 02:23:27
121 371 Juliet Coulson 32760 FV40 13:48:19 03:15:46 00:40:58 02:25:33
122 443 Stephan Godfrey 12957 MV45 13:48:28 03:15:55 00:40:57 02:26:17
123 965 James Varney 23212 M 13:48:47 03:16:14 00:37:09 02:24:31
124 641 Michelle Roberts 13453 FV40 13:48:52 03:16:19 00:39:21 02:27:41
125 295 Simon Beames 32478 MV40 13:48:56 03:16:23 00:41:08 02:26:35
126 522 Natalie Kudik 33957 F 13:49:01 03:16:28 00:40:35 02:27:47
127 633 Andrew Reid Thomas 31015 M 13:49:47 03:17:14 00:41:47 02:26:37
128 389 William Delmont 32536 M 13:49:58 03:17:25 00:39:36 02:24:49
129 552 David Mcalpine 31705 MU20 13:49:59 03:17:26 00:43:47 02:28:47
130 480 Jonathan Ho 13445 M 13:50:02 03:17:29 00:41:04 02:25:26
131 1158 George Agnelli   M 13:50:40 03:18:07 00:37:50 02:25:12
132 1159 David Goss   M 13:50:42 03:18:09 00:37:48 02:24:34
133 550 Hank Mason 31710 M 13:50:58 03:18:25 00:41:21 02:22:56
134 880 Jonathon Lovick 23250 M 13:51:36 03:19:03 00:37:08 02:24:36
135 730 Victoria Walvis 31597 F 13:51:44 03:19:11 00:41:13 02:29:14
136 431 Hannah Gale 32079 F 13:51:46 03:19:13 00:38:35 02:29:16
137 356 James Closs 18145 MV40 13:52:11 03:19:38 00:39:40 02:29:44
138 537 Suzane Leser 33430 F 13:52:14 03:19:41 00:42:50 02:29:57
139 513 Christopher Kelly 32755 M 13:52:26 03:19:53 00:35:05 02:20:21
140 536 Tim Lerwill 21216 MV40 13:53:41 03:21:08 00:37:18 02:27:16
141 523 Helen Kyle 7544 FV50 13:53:58 03:21:25 00:40:00 02:28:54
142 613 Sheena Plint 7543 FV45 13:53:58 03:21:25 00:40:15 02:28:50
143 488 Jesaja Hoop 34334 M 13:54:03 03:21:30 00:34:27 02:14:25
144 352 Sonal Chaudhary 9253 F 13:54:05 03:21:32 00:39:35 02:29:37
145 343 Iain Campbell 31849 M 13:54:37 03:22:04 00:38:37 02:25:24
146 732 Sarah Waters 2823 F 13:54:46 03:22:13 00:41:59 02:33:08
147 499 Byren Ivor 32876 MV55 13:54:48 03:22:15 00:38:25 02:28:57
148 316 Joe Booth 20097 M 13:55:56 03:23:23 00:40:29 02:31:31
149 623 Adam Radford 32631 M 13:56:01 03:23:28 00:38:59 02:27:03
150 604 David Pearce 18965 MV40 13:56:14 03:23:41 00:40:41 02:29:09
151 261 Gem Ahmet 21062 F 13:56:18 03:23:45 00:42:31 02:31:25
152 674 David Southern 26985 MV50 13:56:30 03:23:57 00:42:27 02:31:30
153 496 Fiona Hunter Johnston 33545 F 13:56:35 03:24:02 00:38:58 02:31:50
154 592 Deryck Newland 32874 MV45 13:56:37 03:24:04 00:43:01 02:33:05
155 696 David Taylor 31745 M 13:56:38 03:24:05 00:37:25 02:25:57
156 756 Chris Willimott 14347 MV40 13:56:44 03:24:11 00:39:04 02:30:30
157 324 Gail Brown 33157 F 13:56:52 03:24:19 00:38:57 02:31:47
158 503 Andrzej Jasiczek 27789 M 13:57:07 03:24:34 00:40:35 02:33:12
159 429 Bruno Francisco 31836 M 13:57:23 03:24:50 00:26:42 02:31:22
160 439 Neil Gibbs 23031 MV45 13:57:28 03:24:55 00:40:25 02:28:56
161 581 David Morgan 19388 MV40 13:57:37 03:25:04 00:39:06 02:31:00
162 487 Sarah Holton 568 F 13:57:40 03:25:07 00:41:55 02:36:44
163 465 Anna Harwood 33697 F 13:57:41 03:25:08 00:40:18 02:32:49
164 454 Richard Guest 31304 MV45 13:58:10 03:25:37 00:40:04 02:32:24
165 740 Colin Westbury 31109 MV40 13:58:13 03:25:40 00:43:27 02:38:51
166 323 Tom Briggs 32724 M 13:58:16 03:25:43 00:38:02 02:31:12
167 697 Isobel Taylor 33376 FV40 13:58:22 03:25:49 00:45:18 02:38:22
168 692 Daniel Sweetenham 11557 M 13:59:00 03:26:27 00:42:18 02:35:01
169 698 Tiffany Taylor 14101 F 13:59:24 03:26:51 00:39:42 02:34:20
170 282 Adam Ballantyne 22698 M 13:59:31 03:26:58 00:41:54 02:31:52
171 738 Alice West 31790 F 13:59:32 03:26:59 00:42:31 02:32:18
172 670 Neil Sinclair 11590 MV40 13:59:34 03:27:01 00:42:50 02:33:52
173 726 Duncan Walling 31887 M 13:59:36 03:27:03 00:40:53 02:35:36
174 689 Angie Stuckey 32728 FV40 13:59:39 03:27:06 00:43:53 02:35:47
175 384 Willem De Jager 32866 M 14:00:27 03:27:54 00:42:06 02:34:45
176 576 Louise Mitchell 17559 F 14:00:32 03:27:59 00:45:08 02:37:40
177 526 Tom Langerak 32828 MV40 14:00:36 03:28:03 00:42:06 02:29:21
178 686 Rachel Stow 5563 FV40 14:00:43 03:28:10 00:41:10 02:36:20
179 631 Joseph Reed 32938 M 14:00:57 03:28:24 00:40:31 02:33:24
180 580 Ben Morgan 32263 M 14:01:00 03:28:27 00:38:30 02:30:24
181 402 Emma During 32991 F 14:01:16 03:28:43 00:41:22 02:35:34
182 735 Robert Watts 23382 M 14:01:31 03:28:58 00:41:48 02:32:16
183 881 Joanne Lynch 9749 F 14:01:52 03:29:19 00:43:19 02:35:38
184 733 Chris Watling 24388 MV40 14:02:05 03:29:32 00:42:03 02:32:53
185 611 Simon Pilkington 33152 M 14:02:27 03:29:54 00:42:15 02:34:22
186 734 Raymond Watts 32069 MV40 14:02:30 03:29:57 00:44:30 02:40:51
187 768 Adam Younger 32484 MV50 14:02:38 03:30:05 00:37:51 02:32:34
188 382 Stephen Day 4796 MV50 14:03:01 03:30:28 00:37:31 02:26:58
189 435 Jack Gammon 33506 MV40 14:03:05 03:30:32 00:41:53 02:36:35
190 610 Ceri Philpott 19531 MV40 14:03:09 03:30:36 00:43:33 02:39:01
191 725 Nick Wall 25850 MV45 14:03:37 03:31:04 00:42:21 02:36:13
192 752 Stephen Whitlock 28956 MV45 14:03:40 03:31:07 00:41:50 02:35:21
193 606 John Pelton 28958 MV50 14:03:51 03:31:18 00:41:50 02:35:26
194 561 Don Mcewen 18693 MV45 14:04:19 03:31:46 00:42:57 02:37:35
195 567 Simon Merritt 18721 M 14:04:20 03:31:47 00:42:59 02:37:37
196 729 Alexandra Walvis 31600 F 14:04:31 03:31:58 00:42:02 02:38:01
197 560 Sara Mccraight 31778 F 14:04:44 03:32:11 00:41:57 02:38:30
198 664 Iain Sharpe 32832 M 14:04:48 03:32:15 00:39:01 02:32:46
199 669 Alex Sinclair 20827 M 14:05:52 03:33:19 00:42:12 02:34:32
200 481 Sean Hodgson 22316 MV45 14:06:18 03:33:45 00:43:45 02:39:58
201 416 Suzanne Ellis 15780 FV40 14:06:25 03:33:52 00:42:16 02:37:32
202 673 Mark Smith 24580 M 14:06:37 03:34:04 00:42:44 02:37:45
203 275 Amelia Ashton-Jones 1383 F 14:06:38 03:34:05 00:42:46 02:37:43
204 449 Tom Gravett 9188 M 14:06:54 03:34:21 00:42:53 02:42:49
205 744 Adam Wheeler 24324 MV55 14:07:33 03:35:00 00:40:53 02:38:26
206 736 James Webb 11571 M 14:08:04 03:35:31 00:42:18 02:35:02
207 531 Rhi Leadbeater 19517 M 14:08:17 03:35:44 00:41:01 02:34:01
208 721 Daniel Wade 33351 M 14:08:18 03:35:45 00:42:00 02:36:16
209 762 Paul Wolf 20287 MV50 14:08:22 03:35:49 00:42:47 02:34:38
210 468 Felicity Hawksley 11424 F 14:08:24 03:35:51 00:42:38 02:41:24
211 339 Egg Cameron 32732 F 14:09:20 03:36:47 00:42:58 02:42:18
212 1160 Gidier Richier   M 14:09:32 03:36:59 00:42:26 02:39:44
213 600 Simon Osborne 32839 MV40 14:09:37 03:37:04 00:42:10 02:39:08
214 374 Daniel Cremin 21890 M 14:09:45 03:37:12 00:42:44 02:39:47
215 464 Lucy Harvey 32429 F 14:09:53 03:37:20 00:42:39 02:41:27
216 521 Kasia Kostyrka-Allchorne 31005 F 14:10:32 03:37:59 00:43:01 02:44:08
217 1149 Harold Clamer   MV45 14:10:41 03:38:08 00:38:52 02:34:41
218 943 Gemma Hagen 553 F 14:10:44 03:38:11 00:42:48 02:38:23
219 699 Tristan Taylor 17525 M 14:10:45 03:38:12 00:42:51 02:37:18
220 507 Leon Jonck 4592 M 14:10:52 03:38:19 00:43:09 02:39:50
221 330 Andrew Bunce 33173 M 14:11:08 03:38:35 00:47:43 02:44:27
222 718 Lucie Vosicka 32771 F 14:11:26 03:38:53 00:45:19 02:42:44
223 466 Graeme Hastings 18 MV40 14:11:46 03:39:13 00:45:59 02:41:41
224 629 James Rayner 23965 M 14:12:18 03:39:45 00:40:49 02:40:53
225 369 Jennifer Cornish 11654 F 14:12:55 03:40:22 00:44:26 02:44:39
226 557 Jenny Mccraight 18748 F 14:13:02 03:40:29 00:41:55 02:38:32
227 559 Rob Mccraight 15878 M 14:13:02 03:40:29 00:43:05 02:38:29
228 334 Jason Burns 26838 MV40 14:13:09 03:40:36 00:43:29 02:44:22
229 387 Francesco De Paolis 33684 M 14:13:12 03:40:39 00:42:09 02:41:46
230 724 Dominic Walker 32064 MV40 14:13:26 03:40:53 00:43:04 02:40:13
231 348 Daniel Cattell 33044 M 14:13:32 03:40:59 00:44:11 02:46:08
232 742 Michael Weston 24605 M 14:13:41 03:41:08 00:44:35 02:45:19
233 622 Graeme Purdy 33017 MV40 14:13:42 03:41:09 00:44:45 02:46:10
234 460 Cat Hanson 32463 F 14:13:57 03:41:24 00:43:17 02:42:48
235 668 Joanna Short 8370 FV40 14:14:04 03:41:31 00:44:20 02:44:18
236 447 Simon Graham 7486 MV45 14:14:09 03:41:36 00:45:37 02:44:41
237 684 David Stone 17751 MV40 14:14:12 03:41:39 00:42:35 02:44:20
238 456 Alison Hainsworth 7484 F 14:14:15 03:41:42 00:43:57 02:44:45
239 535 Kevin Lenahan 17866 MV45 14:14:17 03:41:44 00:47:09 02:44:15
240 485 Jilly Holroyd 19828 F 14:14:26 03:41:53 00:44:14 02:46:48
241 344 Derrick Cant 33220 M 14:14:27 03:41:54 00:44:13 02:46:49
242 717 Rachael Vincent 1965 FV50 14:15:35 03:43:02 00:43:25 02:40:49
243 364 Penny Comins 833 F 14:15:42 03:43:09 00:44:58 02:50:42
244 591 Pierre Negre 31116 M 14:15:46 03:43:13 00:41:39 02:45:13
245 461 Toby Hanson 32388 M 14:15:56 03:43:23 00:43:16 02:39:30
246 616 Barry Ponsford 19943 MV50 14:16:09 03:43:36 00:42:34 02:44:33
247 637 Christian Rijs 29371 M 14:16:17 03:43:44 00:48:23 02:49:20
248 296 Tim Beames 19650 M 14:16:25 03:43:52 00:43:05 02:44:03
249 517 Jacques Kieser 32834 M 14:16:46 03:44:13 00:40:02 02:36:49
250 601 Christina Osmun 31783 F 14:17:01 03:44:28 00:45:25 02:48:34
251 542 Jessica Ma 18646 F 14:17:10 03:44:37 00:45:39 02:46:12
252 294 Annika Beab 31717 F 14:17:13 03:44:40 00:45:10 02:47:18
253 528 William Larnach 18567 MV50 14:18:29 03:45:56 00:41:27 02:46:32
254 321 Arthur Brenton 32630 M 14:19:00 03:46:27 00:43:58 02:43:42
255 671 Hugh Smethurst 32917 MV50 14:19:16 03:46:43 00:43:20 02:43:39
256 354 Daniel Cibich 32447 M 14:19:30 03:46:57 00:41:11 02:40:06
257 327 Ludovica Bruno 17698 FV50 14:19:45 03:47:12 00:47:37 02:54:18
258 452 Michele Griffiths 31763 FV45 14:19:49 03:47:16 00:46:08 02:52:11
259 653 Lucy Sangar 11254 FV40 14:19:57 03:47:24 00:43:51 02:51:57
260 421 Alistair Ewing 27952 M 14:20:32 03:47:59 00:44:48 02:44:09
261 446 Christopher Gosling 8141 M 14:20:43 03:48:10 00:43:14 02:44:05
262 378 Sophie Dack 32563 F 14:22:22 03:49:49 00:47:20 02:55:20
263 524 Jonathan Ladhams 32735 M 14:22:25 03:49:52 00:40:43 02:41:59
264 386 Maarten De Meijer 33386 M 14:22:29 03:49:56 00:46:53 02:51:38
265 701 Frank Thuss 33399 M 14:22:55 03:50:22 00:43:39 02:51:40
266 707 Tony Tresigne 7958 MV45 14:23:00 03:50:27 00:45:34 02:51:34
267 603 Richard Paul 32653 M 14:23:03 03:50:30 00:44:46 02:48:14
268 708 Daniel Upson 33927 MV40 14:23:20 03:50:47 00:46:13 02:52:00
269 518 Jane Kirkby 11280 F 14:23:23 03:50:50 00:44:02 02:53:25
270 620 Alexis Powell 30996 M 14:23:25 03:50:52 00:43:09 02:45:34
271 679 Boris Starling 33014 MV40 14:24:01 03:51:28 00:45:19 02:50:03
272 608 Matt Perry 32510 M 14:24:05 03:51:32 00:39:55 02:42:08
273 307 Amy Upson 33519 F 14:24:11 03:51:38 00:46:13 02:51:56
274 630 Melissa Rayner 33929 F 14:24:12 03:51:39 00:43:51 02:51:59
275 337 Joanna Byren 32881 FV55 14:24:18 03:51:45 00:46:10 02:53:44
276 519 Merilin Kiviorg 29085 FV40 14:24:59 03:52:26 00:46:22 02:52:02
277 512 Freddy Kallada 33522 M 14:25:10 03:52:37 00:45:34 02:50:21
278 358 Matthew Cochrane 26223 M 14:25:34 03:53:01 00:47:35 02:49:05
279 357 Chris Cluitt 33465 M 14:25:43 03:53:10 00:47:37 02:49:11
280 558 Madeleine Mccraight 31722 FV55 14:26:11 03:53:38 00:46:43 02:56:43
281 556 Ashley Mccraight 18740 MV60 14:26:20 03:53:47 00:46:49 02:57:08
282 26 Ali Boyce 31967 F 14:26:46 03:54:13 00:44:39 02:46:03
283 661 Debbie Sears 33137 FV50 14:26:56 03:54:23 00:44:45 02:53:37
284 385 Marloes De Lange 32830 F 14:27:00 03:54:27 00:46:29 02:56:08
285 525 Jeanette Langeberg 26350 FV45 14:27:02 03:54:29 00:44:43 02:54:16
286 654 Ferket Saskia 33428 F 14:27:04 03:54:31 00:45:30 02:54:15
287 301 Pat Bennett 33958 FV50 14:27:07 03:54:34 00:45:36 02:55:36
288 619 Benjamin Potts 9340 M 14:27:57 03:55:24 00:40:36 02:44:29
289 340 Fraser Cameron-Laurie 32624 M 14:28:56 03:56:23 00:45:17 02:54:00
290 646 Andrea Ross 12896 F 14:29:09 03:56:36 00:46:56 02:53:49
291 368 Milford Coppock 33138 M 14:29:12 03:56:39 00:42:21 02:50:00
292 406 Sarah Easingwood-Wilson 32618 FV40 14:29:16 03:56:43 00:47:59 02:58:17
293 645 Richard Rose 764 M 14:29:18 03:56:45 00:43:35 02:49:58
294 758 Darren Wilson 32275 M 14:29:18 03:56:45 00:46:57 02:54:10
295 426 Emma Filmer 33485 F 14:29:20 03:56:47 00:46:55 02:54:12
296 727 Rupert Wallman 28841 M 14:29:20 03:56:47 00:48:21 02:54:36
297 759 Katharine Winstanley 33003 F 14:29:22 03:56:49 00:48:07 02:56:25
298 527 David Langrish 2479 MV60 14:29:25 03:56:52 00:41:07 02:46:06
299 761 Victoria Wojciechowska 31736 F 14:29:33 03:57:00 00:44:09 02:53:41
300 579 Brian Moore 31218 MV50 14:29:40 03:57:07 00:41:36 02:45:37
301 590 Rafael Navalon Cabanes 33218 M 14:29:46 03:57:13 00:48:06 02:55:21
302 555 Debbie Mcconnell 33295 F 14:31:39 03:59:06 00:47:43 02:58:08
303 1153 Stephen Alexander   M 14:31:51 03:59:18 00:43:55 02:55:38
304 346 Victoria Casson 33839 F 14:32:01 03:59:28 00:44:38 02:54:06
305 277 George Attard 22950 MV50 14:32:03 03:59:30 00:43:12 02:47:04
306 614 Federico Polese 22938 MV45 14:32:30 03:59:57 00:43:33 02:53:33
307 672 Katy Smith 31980 F 14:32:38 04:00:05 00:47:39 02:57:01
308 635 Jon Richards 31991 MV40 14:32:41 04:00:08 00:47:41 02:57:13
309 753 Andy Whitlum 5571 MV40 14:33:01 04:00:28 00:44:09 02:56:38
310 547 Hugh Manning 33343 M 14:33:28 04:00:55 00:47:28 02:58:38
311 548 Benjamin March 3946 MV40 14:33:33 04:01:00 00:44:51 02:54:08
312 515 Diane Kendall 32650 F 14:33:55 04:01:22 00:47:59 02:58:52
313 425 Wayne Filin-Matthews 32525 MV40 14:34:54 04:02:21 00:45:23 02:54:58
314 569 Milan Mikulejsky 32746 M 14:35:03 04:02:30 00:48:38 02:57:49
315 410 Michael Edghill 33210 M 14:35:18 04:02:45 00:45:37 02:51:36
316 380 Steve Davies 10023 MV55 14:35:31 04:02:58 00:47:01 02:57:32
317 417 Yvonne Ellis 12002 FV40 14:35:52 04:03:19 00:44:52 02:54:14
318 302 Brett Benson 22439 MV40 14:36:51 04:04:18 00:56:45 03:02:46
319 285 Jeroen Baron 32930 M 14:36:59 04:04:26 00:41:33 02:54:19
320 760 Rob Wise 33114 MV50 14:37:18 04:04:45 00:45:39 02:57:20
321 644 Michelle Rodger-Coverley 11069 F 14:40:28 04:07:55 00:49:20 03:05:07
322 643 Mike Rodger 11057 MV40 14:40:30 04:07:57 00:49:20 03:05:06
323 286 Hannah Barrow 25530 F 14:40:46 04:08:13 00:47:52 03:05:52
324 683 Christopher Stewart 32473 M 14:41:01 04:08:28 00:47:56 03:05:48
325 609 Koster Peter 34375 MV50 14:41:25 04:08:52 00:45:30 02:59:11
326 347 Josh Casswell 27654 M 14:41:59 04:09:26 00:48:56 02:57:11
327 594 Ben Nieuwhof 32975 MV50 14:42:01 04:09:28 00:48:41 03:07:14
328 607 Kate Perrett 7251 FV40 14:42:01 04:09:28 00:47:33 03:04:54
329 538 Terance Li 23373 M 14:42:03 04:09:30 00:46:21 02:56:49
330 329 Ali Bunce 32788 FU20 14:43:00 04:10:27 00:49:03 03:04:34
331 331 Helen Bunce 34323 F 14:43:02 04:10:29 00:49:03 03:04:38
332 691 Michael Sutton 28022 M 14:43:05 04:10:32 00:44:03 02:56:07
333 308 Nina Birch 31726 F 14:43:06 04:10:33 00:50:12 03:06:26
334 675 Claire Spencer 32670 F 14:43:56 04:11:23 00:50:10 03:12:00
335 475 Alex Hill 32337 M 14:44:26 04:11:53 00:47:44 03:17:04
336 467 Harry Havekes 29978 MV45 14:45:34 04:13:01 00:50:19 03:09:52
337 677 Tina Spicer 33621 FV40 14:45:38 04:13:05 00:48:04 03:05:58
338 676 Tina Spicer 18086 FV40 14:45:39 04:13:06 00:48:04 03:05:44
339 612 Adrian Plaw 21414 MV40 14:45:40 04:13:07 00:45:41 02:58:59
340 1080 Susannah Price 23518 FV50 14:45:49 04:13:16 00:47:07 03:08:45
341 770 Xi Zou 31503 F 14:47:01 04:14:28 00:50:30 03:06:29
342 423 Kyle Feasey 31787 M 14:47:29 04:14:56 00:45:26 02:56:27
343 403 Emma Dwyer 27742 F 14:47:32 04:14:59 00:46:37 03:01:10
344 533 Ko Leech 32305 F 14:47:51 04:15:18 00:46:11 03:12:27
345 278 Gregoire Audouin 32149 M 14:47:53 04:15:20 00:45:15 03:08:56
346 494 Emma Humphreys 18947 F 14:47:57 04:15:24 00:50:26 03:10:28
347 427 Liz Forsey 20652 F 14:48:30 04:15:57 00:49:29 03:12:15
348 728 Nicola Walpole 27693 FV45 14:49:12 04:16:39 00:48:35 03:13:14
349 553 Jan Mccabe 31028 FV45 14:50:54 04:18:21 00:52:00 03:15:53
350 215 Claire Scammell 32848 F 14:51:24 04:18:51 00:48:31 03:11:08
351 566 Travis Merkel 33482 M 14:51:32 04:18:59 00:45:32 03:11:37
352 1169 Shannon Andrews   F 14:51:35 04:19:02 00:46:44 03:11:40
353 492 Gavin House 31342 MV40 14:52:41 04:20:08 00:48:27 03:11:45
354 419 Andrew Escott-Carrington 31381 MV40 14:52:44 04:20:11 00:48:59 03:11:02
355 754 Brian Williams 544 MV60 14:53:08 04:20:35 00:49:44 03:10:33
356 383 Paul De Heer 33457 MV60 14:53:18 04:20:45 00:47:41 03:07:40
357 444 Rob Gooch 33630 M 14:54:23 04:21:50 00:48:22 02:55:25
358 267 John Stuart Anderson 10287 MV60 14:56:04 04:23:31 00:46:03 03:05:36
359 516 John Kennedy 26939 MV40 14:56:34 04:24:01 00:50:11 03:12:30
360 658 Steven Schotpoort 32842 M 14:58:06 04:25:33 00:47:00 03:07:29
361 335 Kevin Burse 18905 MV45 14:58:26 04:25:53 00:46:07 02:54:39
362 422 John Faragher 30333 M 14:59:34 04:27:01 00:43:24 03:09:38
363 479 Paul Hine 30171 MV50 14:59:36 04:27:03 00:48:29 03:11:10
364 317 Charlotte Bourne 32418 FU20 15:02:26 04:29:53 00:51:19 03:16:13
365 318 Simon Bourne 32417 MV40 15:02:27 04:29:54 00:51:18 03:16:11
366 1150 Gert Robbertsen   MV60 15:09:20 04:36:47 00:47:27 03:25:30
367 1151 Annelies Dickhoot   MV55 15:09:21 04:36:48 00:50:46 03:17:27
368 415 Melanie Ellis 15916 F 15:09:33 04:37:00 00:50:32 03:26:54
369 681 Corinna Stephens 33272 F 15:09:34 04:37:01 00:52:08 03:26:57
370 345 Geoff Carson 32908 MV45 15:13:27 04:40:54 00:48:35 03:23:14
371 351 Joanne Chappell 31979 FV45 15:15:11 04:42:38 00:53:21 03:27:45
372 1161 Jayan Ahn   M 15:23:54 04:51:21 00:48:59 03:42:32
373 258 Iris Aarntzen 33031 F 15:25:32 04:52:59 00:48:41 03:32:10
374 303 Kitty Berends 26349 F 15:25:35 04:53:02 00:50:04 03:32:08
375 628 John Rance 33373 MV60 15:29:40 04:57:07 00:53:05 03:29:50
376 666 Shilpa Shinde 32714 F 15:39:01 05:06:28 00:58:20 03:45:35
377 693 Am Tamulones 32865 FV45 15:39:19 05:06:46 00:57:11 03:46:42
378 418 Jackie England 29270 FV45 15:43:31 05:10:58 00:59:40 03:52:42
379 502 Aleksander Jasiczek 28085 MV50 16:28:47 05:56:14 01:02:24 04:27:28
380 261 Gem Ahmet 21062 F 18:36:27 08:03:54 08:03:46 08:03:50
rtd 349 Tim Challinor 31526 M     00:35:31  
rtd 359 Chris Cockerell 19284 M     00:46:25  
rtd 326 Graham Bruce 32144 M     00:47:39  
rtd 459 Rob Hannam 33480 M     01:07:55  
rtd 495 George Humphreys 31219 MV50     00:40:38  
rtd 361 Jenny Coles 6811 F     00:48:29  
rtd 290 Joseph Barton 13569 M     00:36:30  
rtd 588 Matt Murray 32663 M     00:47:52  
rtd 510 Ronan Julien 31085 M     00:52:10  
rtd 765 David Worth 31105 MV60     00:46:17  
rtd 687 Mike Stroud 31226 M     00:45:41  
rtd 617 Mark Pope 24241 M     00:34:02  
m2 314 Rebecca Bole 18195 FV40 12:36:24 02:03:51 01:35:27  
m1 626 Hashil Ramjee 32492 M 13:27:43 02:55:10   02:09:19
m2 270 Claire Aneck-Hahn 18891 F 13:50:36 03:18:03 00:50:27  
m2 520 Marko Koers 34065 MV40 15:30:21 04:57:48 00:41:41  
Marathon Start: 9:02:07
Upton Tyneham
Pl No Name UID Class [Finish] Time CP1 CP2
1 815 Manol Dimitrov 26337 M 13:03:24 04:01:17 00:50:23 03:21:35
2 958 Mark Tickle 18369 M 13:09:03 04:06:56 00:51:06 03:23:55
3 788 Jack Brown 14619 M 13:16:26 04:14:19 00:50:18 03:27:57
4 858 Hywel Jessop 14120 M 13:28:13 04:26:06 00:54:16 03:38:42
5 920 Rajiv Ratan 13807 M 13:37:57 04:35:50 01:00:39 03:56:16
6 856 Koen Jasper 31792 M 13:41:39 04:39:32 00:55:20 03:50:17
7 838 Adam Grant 32723 M 13:44:13 04:42:06 01:01:49 03:59:33
1F 8 860 Rebecca Johnson 32076 FV40 13:48:23 04:46:16 01:00:18 04:01:54
9 889 James Mccann 2133 M 13:50:03 04:47:56 00:57:33 03:59:29
10 799 Thomas Claracq 32007 MV40 13:51:30 04:49:23 00:57:16 04:00:52
11 801 Eddy Clarke 32668 M 13:51:40 04:49:33 00:54:59 04:02:12
2F 12 790 Emily Canvin 11326 F 13:54:00 04:51:53 00:29:49 04:03:55
3F 13 863 Stephanie Jones 33183 F 13:54:39 04:52:32 01:03:24 04:07:07
14 945 Dominic Smallwood 19142 M 13:56:40 04:54:33 01:05:58 04:08:00
15 975 Tom Wilson 22917 M 13:57:11 04:55:04 01:04:52 04:11:59
16 935 David Sandham 31866 MV45 13:57:25 04:55:18 01:05:52 04:10:41
17 792 Robyn Cassidy 25174 F 14:01:46 04:59:39 00:54:39 04:05:46
18 812 Sharon Daw 6362 FV45 14:07:39 05:05:32 01:09:21 04:17:05
19 807 Laura Darby-Jones 23894 F 14:07:42 05:05:35 01:10:14 04:20:40
20 944 Steve Skedgell 8632 MV40 14:08:05 05:05:58 01:07:45 04:15:47
21 821 Matthew Dunstan 8813 M 14:08:27 05:06:20 00:59:01 04:14:38
22 905 Konstantin Penkov 23130 MV40 14:09:29 05:07:22 01:06:56 04:17:18
23 800 Suzannh Clark 31496 F 14:10:38 05:08:31 01:02:20 04:21:12
24 964 Alex Van Tuyl 31289 M 14:10:40 05:08:33 01:02:23 04:21:10
25 832 Piers Gatenby 7485 M 14:10:57 05:08:50 01:06:05 04:19:18
26 939 Annie Shepherd 34392 F 14:11:23 05:09:16 01:06:29 04:17:36
27 867 Marko Kiiski 32273 MV40 14:12:24 05:10:17 01:03:35 04:16:42
28 862 Chris Jones 31766 M 14:13:14 05:11:07 01:02:25 04:18:34
29 973 James Wildgoose 33547 M 14:15:45 05:13:38 00:58:52 04:25:31
30 894 Carlo Micheli 22220 MV40 14:16:02 05:13:55 01:05:37 04:22:32
31 892 Ben Meakin 22929 M 14:16:16 05:14:09 00:58:39 04:24:13
32 849 Philip Hatzis 33544 M 14:16:33 05:14:26 00:58:56 04:25:33
33 947 Andy Smith 29322 M 14:17:04 05:14:57 00:58:49 04:23:37
34 844 Sebastian Gulka 30220 M 14:17:50 05:15:43 01:07:52 04:24:59
35 901 Hans Niemeijer 32355 MV45 14:18:24 05:16:17 01:01:09 04:23:57
36 1143 Gary Smith   M40 14:19:38 05:17:31 01:05:17 04:20:52
37 840 Rich Griffiths 28134 MV40 14:19:42 05:17:35 01:05:20 04:21:24
38 916 Andrew Procter 4998 M 14:19:51 05:17:44 01:06:07 04:21:51
39 872 Jason Lewis 22928 MV40 14:20:36 05:18:29 01:10:48 04:27:51
40 779 Ashley Beevers 19125 M 14:25:41 05:23:34 01:08:29 04:31:14
41 989 Paul Burrows 17796 M 13:50:53 05:23:51 01:02:18 04:27:07
42 816 Simon Dimmer 33651 MV50 14:31:28 05:29:21 01:07:20 04:36:05
43 929 Simon Robinson 12837 M 14:31:57 05:29:50 01:04:38 04:34:54
44 1146 Alex Crutcher   M 14:32:12 05:30:05 01:02:34 04:35:59
45 855 Steve Jackson 18528 MV50 14:33:06 05:30:59 01:10:17 04:35:54
46 926 Chris Riche-Webber 24059 M 14:34:43 05:32:36 01:12:55 04:38:44
47 842 Noel Grimley 22712 MV45 14:36:55 05:34:48 01:07:12 04:38:27
48 931 Matt Rogan 33472 M 14:37:06 05:34:59 01:12:11 04:37:47
49 961 Jany Tsai 2247 FV40 14:37:28 05:35:21 01:16:15 04:42:22
50 913 Carl Ponder 32809 M 14:41:10 05:39:03 01:06:42 04:41:53
51 956 Mark Thomas 17212 MV45 14:41:11 05:39:04 01:09:49 04:41:51
52 977 Colin Woods 32173 M 14:41:16 05:39:09 01:22:20 04:48:22
53 797 Nick Cherry 14833 M 14:41:41 05:39:34 01:11:26 04:48:11
54 917 Alan Purdue 27159 MV45 14:42:55 05:40:48 01:10:30 04:47:56
55 923 Dave Rennick 27833 M 14:43:33 05:41:26 01:22:39 04:49:34
56 831 David Garner 6985 M 14:44:24 05:42:17 01:08:52 04:34:38
57 836 Mark Golton 20713 M 14:44:25 05:42:18 01:08:54 04:35:29
58 895 Chris Minto 32016 MV40 14:44:45 05:42:38 01:09:10 04:47:28
59 968 Alec Walton 32629 M 14:45:11 05:43:04 01:08:59 04:51:07
60 932 Michael Round 28402 M 14:46:28 05:44:21 01:09:15 04:49:17
61 906 Andy Persson 8973 MV45 14:47:07 05:45:00 tbc tbc
62 806 Alex Crutcher 31350 M 14:47:31 05:45:24 01:11:50 04:49:13
63 586 Daniel Murray 14058 M 14:47:39 05:45:32 01:07:22 04:49:15
64 824 Shane Edwards 23273 M 14:47:42 05:45:35 01:12:20 04:47:45
65 919 Zonika Ramsey 20699 F 14:47:43 05:45:36 01:13:42 04:46:27
66 847 Alexandra Hankey 34018 F 14:47:45 05:45:38 01:22:27 04:53:34
67 1145 Mark Savill   M45 14:47:46 05:45:39 01:11:44 04:49:11
68 802 Doug Cload 6422 M 14:48:22 05:46:15 01:06:00 04:38:23
69 1079 Matt Price *(u) 24879 M 14:14:57 05:47:55 01:05:23 04:55:35
70 914 Bas Post 31884 M 14:50:03 05:47:56 01:17:07 04:55:51
71 1138 Roy Bruhn   MV40 14:50:51 05:48:44 01:11:01 04:45:06
72 820 Greg Drach 32591 M 14:52:03 05:49:56 01:15:31 04:57:55
73 868 Steve Knell 7358 M 14:52:06 05:49:59 01:12:03 04:54:32
74 938 Clive Shaw 10179 MV50 14:52:38 05:50:31 01:06:35 04:49:09
75 777 Paul Bastiaens 32968 M 14:53:01 05:50:54 01:11:20 04:49:20
76 848 Daniel Hart 33425 M 14:53:48 05:51:41 01:07:28 04:52:22
77 803 Andrew Cooksey 21420 MV50 14:54:33 05:52:26 01:16:11 04:55:53
78 969 Adrian Way 32955 M 14:54:35 05:52:28 01:10:58 04:57:25
79 1140 Lucy Zirbser *(u)   F40 14:20:46 05:53:44 01:05:32 04:56:00
80 1132 Mark Zirbser *(u) 17907 MV40 14:20:49 05:53:47 01:09:38 04:56:03
81 835 Gus Glazebrook 32331 MV40 14:56:13 05:54:06 01:09:23 04:52:34
82 976 Stephen Wood 22612 M 14:57:09 05:55:02 01:17:20 04:54:31
83 787 Shaun Brady 10617 MV40 14:57:45 05:55:38 01:04:50 04:57:12
84 1144 Andrew Miles   MV40 14:58:02 05:55:55 01:12:18 04:56:17
85 827 Ben Farnsworth 32192 M 15:01:07 05:59:00 01:09:42 04:54:28
86 841 Will Griffiths 21663 M 15:01:08 05:59:01 01:11:18 05:02:44
87 772 Nick Anderson 19295 M 15:01:10 05:59:03 01:11:16 05:02:41
88 878 Marcus Lobb 27812 M 15:01:54 05:59:47 01:12:49 05:00:39
89 865 Hisayo Kawahara 29623 FV45 15:02:12 06:00:05 00:49:05 04:56:46
90 846 John Hammond 32850 M 15:06:03 06:03:56 01:09:12 04:55:35
91 946 Andrew Smerdon 2523 MV45 15:09:28 06:07:21 01:19:11 05:06:52
92 864 David Jorge 28611 M 15:09:32 06:07:25 01:19:19 05:06:50
93 952 Akom Srithunma 33638 MV45 15:09:55 06:07:48 01:18:49 05:08:45
94 899 Julian Moya 31800 MV45 15:10:44 06:08:37 00:58:42 05:02:27
95 941 Neil Shoesmith 19194 M 15:14:41 06:12:34 01:17:47 05:12:21
96 854 Edward Hornby 32212 M 15:14:43 06:12:36 01:06:31 05:07:02
97 910 Deborah Pitt 17313 F 15:15:57 06:13:50 01:18:04 05:12:11
98 811 Paul Davis 33301 M 15:18:03 06:15:56 01:12:42 05:06:14
99 940 Luretta Shepherd 19573 F 15:19:40 06:17:33 01:19:17 05:08:27
100 967 Jenny Walker-Leach 30537 F 15:19:42 06:17:35 01:18:07 05:09:05
101 859 Bex Johnson 24829 FV40 15:19:44 06:17:37 01:18:09 05:09:02
102 804 Jason Cox 26658 MV40 15:20:28 06:18:21 01:15:10 05:14:28
103 843 Claire Guinat 31737 F 15:22:22 06:20:15 01:09:53 05:10:50
104 966 Timothy Vergne 31738 M 15:22:25 06:20:18 01:09:34 05:10:52
105 922 Paula Redmond 3094 F 14:48:08 06:21:06 01:19:13 05:06:52
106 954 Pieter Staphorst 31882 M 15:25:02 06:22:55 01:17:05 05:14:04
107 959 Alan Trevarthen 3077 MV50 15:25:30 06:23:23 01:19:22 05:20:01
108 928 Elizabeth Roberts 32055 FV40 15:26:08 06:24:01 01:22:35 05:20:04
109 798 Stephen Chubb 26383 MV40 15:29:09 06:27:02 01:13:32 05:18:56
110 818 Dazel Domanillo 28713 M 15:30:14 06:28:07 01:14:50 05:19:07
111 875 Stewart Liesnham 23396 MV40 15:30:30 06:28:23 01:19:55 05:23:10
112 871 Joe Lawson 31767 M 15:31:33 06:29:26 01:14:36 05:20:50
113 789 Chris Cadman 34383 M 15:32:56 06:30:49 01:14:39 05:23:13
114 834 Andrew Gemmell 31337 MV45 15:35:47 06:33:40 01:23:00 05:27:13
115 949 Matthew Smith 32649 MU20 15:37:05 06:34:58 01:17:12 05:29:08
116 924 Hannah Richards 28250 F 15:38:17 06:36:10 01:21:47 05:29:14
117 783 Marc Blackband 33507 MV40 15:38:21 06:36:14 01:23:07 05:26:32
118 911 Bron Plaskowski 33197 MV50 15:40:18 06:38:11 01:19:37 05:29:12
119 808 Bryan Darney 2378 MV60 15:40:20 06:38:13 01:23:14 05:36:42
120 814 Hugo Deed 33510 M 15:41:57 06:39:50 01:09:03 05:33:11
121 948 Gary Smith 32963 MV40 15:45:42 06:43:35 00:52:02 05:25:35
122 900 Kevin Newell 27806 MV40 15:47:13 06:45:06 01:18:13 05:27:40
123 828 Salim Farrar 32396 MV45 15:48:11 06:46:04 01:16:39 05:35:32
124 793 Felix Chambers 31458 M 15:48:18 06:46:11 01:16:46 05:31:37
125 794 Riley Chambers 31456 M 15:48:20 06:46:13 01:16:49 05:31:34
126 882 Kasey Lynch 7155 F 15:48:21 06:46:14 01:31:16 05:40:04
127 819 Annie Dougall 7913 FV60 15:49:51 06:47:44 01:23:10 05:40:45
128 887 Martin Matthews 19376 MV50 15:49:53 06:47:46 01:23:12 05:40:45
129 780 John Bennett 32002 M 15:51:40 06:49:33 01:21:19 05:40:54
130 776 Lorraine Barry 8412 FV50 15:56:22 06:54:15 01:30:19 05:45:24
131 908 Lorraine Pink 34380 FV40 16:04:23 07:02:16 01:23:40 05:49:06
132 784 Danielle Blackie 33379 F 16:04:44 07:02:37 01:22:07 05:52:42
133 937 Ciaran Scollan 32031 M 16:06:04 07:03:57 01:23:44 05:43:27
134 904 Sean O'grady 31741 M 16:06:08 07:04:01 01:23:50 05:43:28
135 866 James Keenan 31765 M 16:06:39 07:04:32 01:10:28 05:51:36
136 907 Ian Pink 33248 MV40 16:11:14 07:09:07 01:23:25 05:49:54
137 962 Joanna Turner *(u) 22746 FV40 15:39:07 07:12:05 01:28:12 06:02:15
138 1147 Xinena Arana   F40 16:14:32 07:12:25 01:20:43 05:52:46
139 957 Stuart Thomson 21467 M 16:14:34 07:12:27 01:20:40 05:53:02
140 813 Harry Deed 33541 M 16:15:06 07:12:59 01:22:10 05:52:59
141 833 Rose Gater 17601 F 16:24:53 07:22:46 01:19:42 04:05:25
142 829 Tracey Freear 20567 FV40 16:28:05 07:25:58 01:26:08 06:11:21
143 890 Emma Mcfarlane 31367 F 16:32:48 07:30:41 01:30:24 06:12:27
144 970 Mark Westall 32193 MV45 16:32:50 07:30:43 01:30:41 06:12:22
145 785 Michael Bogg 31746 M 16:34:52 07:32:45 01:37:48 06:34:09
146 909 Nina Pitcairn 31758 F 16:42:41 07:40:34 01:30:53 06:12:25
147 773 Jacqueline Ashley-Collins 28087 FV50 16:42:42 07:40:35 01:29:32 06:17:26
148 795 Edward Chapman 1983 MV55 17:00:21 07:58:14 01:28:06 06:38:17
149 898 Tom Morrow 24959 MV50 17:12:07 08:10:00 01:40:23 06:52:20
150 903 James Norman 31723 M 17:20:22 08:18:15 01:37:54 06:53:40
151 883 Kailey Makin 32829 F 17:21:17 08:19:10 01:36:55 06:39:01
152 884 Tom Makin 32831 M 17:21:21 08:19:14 01:36:57 06:38:59
rtd 822 Mark Dyke 33643 MV50     01:24:50  
rtd 825 Russell Ellis 11646 M     01:11:29  
rtd 876 James Lillington 31049 M     01:07:29  
rtd 771 Jules Alaneme 34037 MV40        
rtd 786 James Bowring 10683 MV45     01:34:02  
rtd 781 James Berresford 31841 M        
rtd 963 Nienke Van Den Berg 31050 F     01:07:26  
w1 850 David Hemming 25940 MV40 14:15:43 05:13:36   04:21:06
m1 893 Victor Menge 31158 M 16:59:50 07:57:43   06:27:33
Ultra Marathon Start: 8:27:02
Upton Tyneham W.Btm
Pl No Name UID Class [Finish] Time CP1 CP2 CP3
1F 1 1064 Sarah Morwood 26469 F 13:50:18 05:23:16 00:59:50 03:41:00 04:58:55
2 1023 Johnathan Gordon 9906 M 13:53:00 05:25:58 00:54:43 03:33:53 04:58:48
3 1015 Andrew Findley 33250 MV50 14:07:02 05:36:00 tbc tbc tbc
4 1097 Ben Sears 32043 M 14:14:23 05:47:21 00:58:10 03:42:48 05:18:32
5 987 Christopher Buck 21122 M 14:21:50 05:54:48 01:00:02 03:56:08 05:26:53
6 1017 Zoltan Fodor 7566 M 14:52:47 06:25:45 01:10:52 04:17:58 05:56:31
7 1021 Stephan Gehne 31411 M 14:55:08 06:28:06 00:56:03 04:20:29 05:54:33
8 1123 Nick Weston 1558 M 15:07:08 06:40:06 01:07:13 04:37:27 06:09:13
2F 9 1091 Diane Roy 13419 FV50 15:07:09 06:40:07 01:11:40 04:27:16 06:09:15
10 1054 Tom Mapham 19986 M 15:09:15 06:42:13 01:06:31 04:44:36 06:14:56
11 1066 Daniel Munns 25974 MV40 15:14:46 06:47:44 01:04:00 04:32:00 06:13:21
12 1099 Mark Shannon 21544 M 15:17:26 06:50:24 01:04:44 04:43:39 06:20:04
13 1098 Kevin Shannon 21541 M 15:17:27 06:50:25 01:04:42 04:43:38 06:20:03
14 1073 Thomas Parry 33793 M 15:17:37 06:50:35 01:02:50 04:39:01 06:18:21
15 1112 Paul Tapper 33299 MV40 15:23:40 06:56:38 01:08:04 04:42:39 06:24:21
3F 16 1003 Andrea Devine 27840 FV45 15:24:41 06:57:39 01:15:36 04:40:48 06:23:51
17 1065 Patrick Munn 17875 MV50 15:25:10 06:58:08 01:06:13 04:44:25 06:28:17
18 1089 Leanne Rive 32034 FV40 15:26:16 06:59:14 01:09:56 04:42:30 06:28:42
19 1057 Paul Mccleery 33325 MV40 15:26:39 06:59:37 01:06:12 04:43:49 06:27:33
20 1141 John Reynolds   MV50 15:27:35 07:00:33 01:06:19 04:47:58 06:30:20
21 1111 Ervin Szito 25341 M 15:28:32 07:01:30 01:13:34 04:34:42 06:27:05
22 1130 Peter Windross 19095 MV40 15:29:13 07:02:11 01:06:39 04:43:00 06:34:35
23 1116 Stephen Turner 22745 MV50 15:29:30 07:02:28 01:09:41 04:47:08 06:32:14
24 1067 Dan Murdoch 33088 M 15:30:09 07:03:07 01:06:42 04:46:07 06:28:21
25 1043 Andras Kulcsar 24993 M 15:30:37 07:03:35 01:07:15 04:50:20 06:33:26
26 1119 Benjamin Warner 22645 M 15:31:28 07:04:26 01:09:34 04:36:55 06:28:34
27 1084 Mark Rainsley 18136 MV40 15:32:06 07:05:04 01:10:13 04:39:46 06:31:53
28 1001 Nigel Dawson 21000 M 15:32:08 07:05:06 01:10:17 04:40:00 06:28:45
29 986 Kate Britten 24539 F 15:33:41 07:06:39 01:07:39 04:49:03 06:33:35
30 1092 Andy Ryan 33698 M 15:35:30 07:08:28 01:08:41 04:47:33 06:32:38
31 1048 Neale Legge 18793 MV40 15:37:49 07:10:47 01:07:41 04:47:02 06:33:11
32 1122 Tarne Westcott 23294 M 15:39:42 07:12:40 01:09:28 04:52:05 06:42:45
33 1051 Hugh Lovatt 32644 M 15:40:46 07:13:44 01:06:35 04:55:24 06:41:24
34 1037 Peter Jackson 33320 MV45 15:43:35 07:16:33 01:13:39 04:46:18 06:39:55
35 1095 Max Sanders 33167 M 15:43:42 07:16:40 01:15:39 04:42:41 06:37:10
36 1078 Dave Pratten 15344 MV60 15:46:42 07:19:40 01:09:43 04:52:07 06:45:57
37 1053 Duncan Macrae 32729 M 15:47:17 07:20:15 01:10:25 04:48:39 06:43:31
38 1142 Daniel Elswood   M 15:47:19 07:20:17 01:10:28 04:51:54 06:43:28
39 998 Tom Curran 8559 M 15:47:46 07:20:44 01:15:23 04:59:24 06:49:17
40 1038 Andrew Jones 33177 M 15:48:03 07:21:01 01:12:40 04:51:02 06:45:26
41 1050 Simon Lester 32028 MV45 15:48:07 07:21:05 01:05:30 04:42:46 06:38:56
42 1007 Michelle Double 24986 F 15:48:51 07:21:49 01:10:39 05:04:58 06:45:55
43 1109 Robin Steacy 29093 M 15:48:54 07:21:52 01:06:27 05:00:01 06:45:49
44 1068 Craig Neal 31945 MV40 15:49:13 07:22:11 01:08:34 04:53:12 06:42:50
45 1033 George Howard 32427 M 15:49:18 07:22:16 01:06:56 05:00:31 06:45:52
46 1094 Nick Salwey 31721 MV40 15:52:50 07:25:48 01:05:26 04:26:23 06:36:36
47 1093 Nick Sale 6613 MV40 15:56:58 07:29:56 01:12:38 04:50:06 06:49:23
48 1036 Tim Irish 10987 MV45 15:57:00 07:29:58 01:12:33 04:50:08 06:49:20
49 1107 Chris Sparrow 32184 MV40 15:57:23 07:30:21 01:17:30 04:56:40 06:47:20
50 1035 Judith Humpleby 23722 FV50 15:57:45 07:30:43 01:15:32 04:56:08 06:51:05
51 1108 Will Spriggs 21369 M 15:57:58 07:30:56 01:07:43 05:00:02 06:53:07
52 1012 Lou Dutch 32316 F 15:59:51 07:32:49 01:17:27 05:01:04 06:55:18
53 1131 Edward Wright 31067 MV40 15:59:54 07:32:52 01:11:45 04:57:56 06:55:24
54 983 James Bennett 33934 M 16:02:01 07:34:59 01:15:09 05:08:21 06:56:42
55 1024 Richard Goulder 32734 MV40 16:05:44 07:38:42 01:03:34 04:58:07 07:02:22
56 1045 Andrew Lane 31804 M 16:06:40 07:39:38 01:02:59 04:51:49 07:06:16
57 1126 Kirk Wilde 32068 M 16:06:56 07:39:54 01:20:52 05:10:29 07:00:28
58 1088 Jerome Ribot 32736 M 16:08:33 07:41:31 01:08:37 05:20:09 07:06:25
59 1076 Graham Pitcher 27935 MV55 16:11:09 07:44:07 01:17:00 05:04:27 07:02:25
60 1022 Shelley Gooch-Smith 31041 FV40 16:16:46 07:49:44 01:27:17 04:51:32 07:05:34
61 1058 John Mcelroy 31379 MV50 16:16:48 07:49:46 01:26:48 04:51:29 07:05:31
62 1096 Nikki Savings 31637 FV60 16:16:48 07:49:46 01:27:15 04:51:26 07:05:35
63 1136 Edwin Costelain   MV45 16:18:52 07:51:50 01:19:17 05:09:11 07:07:51
64 1083 Nick Purser 33527 MV40 16:20:17 07:53:15 01:17:24 05:08:24 07:15:46
65 1039 Neil Jones 33252 F 16:24:00 07:56:58 01:12:57 05:05:22 07:14:21
66 999 Julie Dalzell 33251 FV45 16:24:02 07:57:00 01:13:37 05:05:26 07:14:22
67 993 Rob Cloete 19114 M 16:26:41 07:59:39 01:16:21 05:08:09 07:22:39
68 1059 Andrew Mcmillan 19340 M 16:26:41 07:59:39 01:16:30 05:07:59 07:22:30
69 997 Neil Crump 32910 M 16:29:59 08:02:57 01:16:10 05:08:36 07:15:54
70 1121 Hugh Welchman 32950 M 16:33:41 08:06:39 01:15:06 05:03:00 07:24:19
71 1032 George Holdt 33326 M 16:35:01 08:07:59 01:15:17 05:07:41 07:24:25
72 1063 Catherine Moran 33593 F 16:36:06 08:09:04 01:19:06 05:15:45 07:24:28
73 1082 Cameron Purcell 31682 MV45 16:53:04 08:26:02 01:27:05 05:34:15 07:39:09
74 996 Tim Condon 33266 M 16:53:07 08:26:05 01:17:21 05:06:17 07:25:48
75 1103 Philip Slemon 32648 MV40 17:08:55 08:41:53 01:18:18 05:41:10 07:56:34
rtd 1040 Andy Jukes 2004 MV45     01:07:00    
rtd 1018 David Foxall 20669 M     01:11:44    
rtd 1090 Leila Rose 18609 FV40     01:27:28    
rtd 994 Matt Coffey 15694 MV40     01:17:34    
rtd 988 Steven Burgess 33782 MV40     01:26:43    
rtd 1030 James Hartshorn 9614 MV40     01:04:46    
rtd 1114 Simon Topp 33236 MV45     01:19:03    
rtd 1127 Max Willcocks 8516 M     00:59:30 03:55:11  
m3 989 Paul Burrows 17796 M 13:50:53 05:23:51 01:02:18 04:27:07  
m3 979 Phil Adams 1139 MV50 14:00:49 05:33:47 01:08:24 04:42:48  
m3 1077 Simon Porter 33611 MU20 14:01:21 05:34:19 01:10:46 04:30:49  
m3 1025 Ian Grace 689 MV45 14:08:42 05:41:40 01:08:39 04:49:55  
m3 1013 Richard Ebbs 32899 MV40 14:22:46 05:55:44 01:07:11 04:56:21  
m3 1002 Lee De Ste Croix 23248 M 14:27:50 06:00:48 01:07:26 04:56:35  
m3 1062 Callum Moore 31217 M 14:29:43 06:02:41 01:15:41 04:55:14  
m3 1128 Ben Wilson 28976 M 14:31:48 06:04:46 01:06:25 05:01:29  
m3 1056 Chris Mccarthy 18141 M 14:33:37 06:06:35 01:06:08 05:01:32  
m3 1075 Lee Pester 19281 M 14:37:40 06:10:38 01:03:02 05:06:11  
m3 1081 Adele Prince 32599 FV40 14:38:05 06:11:03 01:17:39 05:04:55  
m3 1118 Matt Wade 33834 M 14:38:26 06:11:24 01:09:46 05:08:27  
m3 1046 Janusz Lasik 23286 M 14:41:13 06:14:11 01:15:45 05:09:57  
m3 981 Teresa Baverstock 18598 F 14:41:36 06:14:34 01:28:36 05:18:40  
m3 1034 Phil Hoy 31054 FV50 14:41:40 06:14:38 01:28:59 05:18:38  
m3 1029 Graeme Harris 24116 M 14:46:22 06:19:20 01:06:33 05:08:06  
m3 1071 Tania Pacheco 33267 F 14:47:21 06:20:19 01:15:29 05:04:49  
m3 1137 Yan Fokka Oosterhof   M 14:51:04 06:24:02 01:19:11 05:09:55  
m3 1055 Miguel Martins Da Silva 31142 MV40 15:02:03 06:35:01 01:09:02 05:31:53  
m3 1072 Sean Parry 32586 M 15:13:24 06:46:22 01:09:19 05:37:20  
m3 1027 Emma Greaves 31106 FV40 15:18:09 06:51:07 01:27:36 05:46:33  
m3 1087 Miranda Reynolds 31110 FV40 15:18:11 06:51:09 01:27:40 05:46:36  
m3 984 Alannah Brett 32312 F 15:19:48 06:52:46 01:22:14 05:31:48  
m3 1060 Paul Mingo 22487 MV40 15:26:52 06:59:50 01:26:22 05:50:04  
m3 1008 Kate Driskell 33232 FV40 15:35:38 07:08:36 01:25:26 05:56:04  
m3 1011 Katrin Dulitz 32742 F 15:38:42 07:11:40 01:37:23 06:01:05  
m3 974 Stephen Wilding 20320 MV40 15:39:14 07:12:12 01:25:59 05:49:48  
m3 1069 Kevin O'reilly 23129 MV55 15:39:34 07:12:32 01:26:59 05:50:00  
m3 1135 Tracy Smith   F 15:45:44 07:18:42 01:26:06 06:00:40